TGL971C LFLL-LEPA

Flight info

Callsign TGL971C
Flight time 1h 13m
Altitude 37000
Route ROMAM A6 MTL DCT DIVKO DCT VATIR DCT PIVUS DCT BODEQ DCT VERSO L129 LUNIK
Aircraft A320/M-SDE3FGHIRWY/LB1

Departure

Time 2026-05-06 14:41
Airport Lyon Saint-Exupéry Airport (LFLL)

Arrival

Time 2026-05-06 15:54
Airport Palma de Mallorca Airport (LEPA)
Time Latitude Longitude Altitude Speed Heading
2026-05-06 14:06 45.72180 5.08201 791 ft 0 kts 258°
2026-05-06 14:11 45.72180 5.08202 791 ft 0 kts 258°
2026-05-06 14:30 45.72183 5.08219 791 ft 3 kts 293°
2026-05-06 14:31 45.72174 5.08244 791 ft 2 kts 294°
2026-05-06 14:31 45.72165 5.08275 791 ft 3 kts 295°
2026-05-06 14:31 45.72153 5.08302 792 ft 3 kts 334°
2026-05-06 14:31 45.72144 5.08306 792 ft 0 kts 15°
2026-05-06 14:34 45.72149 5.08308 792 ft 2 kts 15°
2026-05-06 14:34 45.72171 5.08315 791 ft 4 kts
2026-05-06 14:35 45.72211 5.08315 791 ft 8 kts 356°
2026-05-06 14:35 45.72267 5.08383 790 ft 15 kts 59°
2026-05-06 14:35 45.72362 5.08410 789 ft 14 kts 355°
2026-05-06 14:35 45.72459 5.08398 788 ft 14 kts 355°
2026-05-06 14:36 45.72551 5.08387 787 ft 13 kts 354°
2026-05-06 14:36 45.72638 5.08377 786 ft 12 kts 355°
2026-05-06 14:36 45.72722 5.08366 785 ft 12 kts 355°
2026-05-06 14:36 45.72801 5.08357 784 ft 11 kts 355°
2026-05-06 14:37 45.72876 5.08347 783 ft 11 kts 355°
2026-05-06 14:37 45.72948 5.08339 782 ft 10 kts 355°
2026-05-06 14:37 45.73023 5.08330 781 ft 13 kts 355°
2026-05-06 14:37 45.73137 5.08317 780 ft 19 kts 354°
2026-05-06 14:38 45.73277 5.08297 778 ft 21 kts 353°
2026-05-06 14:38 45.73427 5.08280 776 ft 23 kts 355°
2026-05-06 14:38 45.73573 5.08262 775 ft 19 kts 355°
2026-05-06 14:38 45.73667 5.08257 774 ft 10 kts 11°
2026-05-06 14:39 45.73718 5.08314 774 ft 9 kts 63°
2026-05-06 14:39 45.73724 5.08391 775 ft 8 kts 97°
2026-05-06 14:39 45.73712 5.08467 775 ft 8 kts 103°
2026-05-06 14:39 45.73698 5.08550 775 ft 9 kts 103°
2026-05-06 14:40 45.73682 5.08645 775 ft 11 kts 103°
2026-05-06 14:40 45.73636 5.08718 776 ft 11 kts 172°
2026-05-06 14:40 45.73529 5.08732 778 ft 32 kts 175°
2026-05-06 14:40 45.73052 5.08792 785 ft 101 kts 175°
2026-05-06 14:41 45.72160 5.08902 799 ft 153 kts 174°
2026-05-06 14:41 45.71080 5.09026 1377 ft 155 kts 174°
2026-05-06 14:41 45.70002 5.09147 2129 ft 155 kts 175°
2026-05-06 14:41 45.68928 5.09276 2839 ft 154 kts 175°
2026-05-06 14:42 45.67869 5.09412 3517 ft 151 kts 175°
2026-05-06 14:42 45.66822 5.09544 4113 ft 151 kts 175°
2026-05-06 14:42 45.65699 5.09687 4421 ft 172 kts 175°
2026-05-06 14:42 45.64453 5.09840 4793 ft 187 kts 175°
2026-05-06 14:43 45.63095 5.10000 5115 ft 205 kts 176°
2026-05-06 14:43 45.61602 5.10170 5376 ft 228 kts 176°
2026-05-06 14:43 45.59936 5.10365 5737 ft 252 kts 176°
2026-05-06 14:43 45.58137 5.10582 6393 ft 265 kts 176°
2026-05-06 14:44 45.56273 5.10813 6852 ft 271 kts 176°
2026-05-06 14:44 45.54392 5.11046 6974 ft 271 kts 176°
2026-05-06 14:44 45.52513 5.11280 7007 ft 271 kts 176°
2026-05-06 14:45 45.48698 5.11750 8580 ft 277 kts 176°
2026-05-06 14:45 45.46768 5.11980 9454 ft 280 kts 176°
2026-05-06 14:45 45.44806 5.12212 10173 ft 289 kts 177°
2026-05-06 14:45 45.42718 5.12456 10447 ft 313 kts 177°
2026-05-06 14:46 45.40469 5.12720 10696 ft 335 kts 177°
2026-05-06 14:46 45.38107 5.13002 11237 ft 345 kts 176°
2026-05-06 14:46 45.35700 5.13294 11927 ft 350 kts 176°
2026-05-06 14:46 45.33257 5.13590 12656 ft 354 kts 176°
2026-05-06 14:47 45.30796 5.13890 13379 ft 358 kts 176°
2026-05-06 14:47 45.28302 5.14192 14054 ft 362 kts 177°
2026-05-06 14:47 45.25784 5.14493 14684 ft 365 kts 177°
2026-05-06 14:47 45.23240 5.14796 15324 ft 369 kts 177°
2026-05-06 14:48 45.20672 5.15103 15951 ft 372 kts 178°
2026-05-06 14:48 45.18083 5.15413 16574 ft 375 kts 178°
2026-05-06 14:48 45.15469 5.15724 17190 ft 379 kts 178°
2026-05-06 14:48 45.12834 5.15936 17795 ft 380 kts 184°
2026-05-06 14:49 45.10207 5.15543 18370 ft 380 kts 194°
2026-05-06 14:49 45.07676 5.14473 18887 ft 380 kts 205°
2026-05-06 14:49 45.05294 5.12859 19392 ft 381 kts 209°
2026-05-06 14:49 45.02919 5.11177 19934 ft 383 kts 209°
2026-05-06 14:50 45.00523 5.09493 20483 ft 385 kts 209°
2026-05-06 14:50 44.98113 5.07807 21047 ft 388 kts 208°
2026-05-06 14:50 44.95686 5.06119 21581 ft 390 kts 208°
2026-05-06 14:50 44.93238 5.04418 22099 ft 393 kts 208°
2026-05-06 14:51 44.90785 5.02708 22611 ft 395 kts 208°
2026-05-06 14:51 44.88313 5.00986 23080 ft 397 kts 209°
2026-05-06 14:51 44.85833 4.99262 23600 ft 398 kts 210°
2026-05-06 14:51 44.83345 4.97533 24034 ft 398 kts 210°
2026-05-06 14:52 44.80857 4.95807 24471 ft 399 kts 210°
2026-05-06 14:52 44.78365 4.94078 24888 ft 401 kts 210°
2026-05-06 14:52 44.75857 4.92338 25288 ft 403 kts 210°
2026-05-06 14:52 44.73340 4.90592 25703 ft 404 kts 210°
2026-05-06 14:53 44.70816 4.88840 26108 ft 405 kts 210°
2026-05-06 14:53 44.68295 4.87067 26508 ft 406 kts 210°
2026-05-06 14:53 44.65774 4.85282 26899 ft 407 kts 210°
2026-05-06 14:53 44.63246 4.83486 27317 ft 407 kts 210°
2026-05-06 14:54 44.60713 4.81683 27715 ft 408 kts 210°
2026-05-06 14:54 44.58165 4.79920 28072 ft 411 kts 207°
2026-05-06 14:54 44.55438 4.78632 28416 ft 417 kts 198°
2026-05-06 14:54 44.52551 4.78005 28756 ft 424 kts 188°
2026-05-06 14:55 44.49578 4.77960 29067 ft 428 kts 186°
2026-05-06 14:55 44.46604 4.77972 29448 ft 428 kts 186°
2026-05-06 14:55 44.43631 4.77979 29915 ft 426 kts 186°
2026-05-06 14:55 44.40719 4.77982 30348 ft 423 kts 186°
2026-05-06 14:56 44.37779 4.77974 30718 ft 422 kts 186°
2026-05-06 14:56 44.34849 4.77962 31049 ft 422 kts 186°
2026-05-06 14:56 44.31915 4.77950 31362 ft 421 kts 186°
2026-05-06 14:56 44.28984 4.77939 31720 ft 420 kts 186°
2026-05-06 14:57 44.26060 4.77930 32076 ft 420 kts 186°
2026-05-06 14:57 44.23146 4.77922 32410 ft 419 kts 186°
2026-05-06 14:57 44.20226 4.77917 32730 ft 419 kts 186°
2026-05-06 14:57 44.17310 4.77913 33046 ft 419 kts 186°
2026-05-06 14:58 44.14391 4.77905 33362 ft 419 kts 186°
2026-05-06 14:58 44.11475 4.77896 33655 ft 419 kts 186°
2026-05-06 14:58 44.08564 4.77890 33987 ft 418 kts 186°
2026-05-06 14:58 44.05656 4.77885 34262 ft 418 kts 186°
2026-05-06 14:59 44.02744 4.77880 34513 ft 418 kts 186°
2026-05-06 14:59 43.99835 4.77876 34751 ft 419 kts 185°
2026-05-06 14:59 43.96919 4.77870 34991 ft 419 kts 185°
2026-05-06 14:59 43.94001 4.77860 35220 ft 419 kts 185°
2026-05-06 15:00 43.91083 4.77850 35425 ft 420 kts 185°
2026-05-06 15:00 43.88164 4.77845 35677 ft 419 kts 185°
2026-05-06 15:00 43.85246 4.77842 35900 ft 419 kts 185°
2026-05-06 15:00 43.82330 4.77842 36109 ft 420 kts 185°
2026-05-06 15:01 43.79407 4.77842 36314 ft 420 kts 185°
2026-05-06 15:01 43.76485 4.77838 36510 ft 420 kts 185°
2026-05-06 15:01 43.73555 4.77832 36712 ft 421 kts 185°
2026-05-06 15:01 43.70624 4.77825 36864 ft 421 kts 185°
2026-05-06 15:02 43.67691 4.77814 36915 ft 422 kts 185°
2026-05-06 15:02 43.61806 4.77801 36917 ft 423 kts 185°
2026-05-06 15:03 43.55926 4.77797 36919 ft 423 kts 185°
2026-05-06 15:03 43.50044 4.77788 36919 ft 422 kts 185°
2026-05-06 15:04 43.44184 4.77777 36920 ft 421 kts 185°
2026-05-06 15:04 43.38324 4.77765 36921 ft 421 kts 185°
2026-05-06 15:05 43.32465 4.77746 36906 ft 421 kts 185°
2026-05-06 15:05 43.26601 4.77726 36926 ft 421 kts 186°
2026-05-06 15:06 43.20743 4.77716 36939 ft 421 kts 186°
2026-05-06 15:06 43.14885 4.77711 36946 ft 421 kts 185°
2026-05-06 15:07 43.09040 4.77669 36921 ft 418 kts 189°
2026-05-06 15:07 43.03487 4.75929 36927 ft 406 kts 207°
2026-05-06 15:08 42.98541 4.72317 36933 ft 403 kts 212°
2026-05-06 15:08 42.93673 4.68617 36936 ft 403 kts 212°
2026-05-06 15:09 42.88762 4.64909 36927 ft 403 kts 212°
2026-05-06 15:09 42.83852 4.61213 36934 ft 403 kts 212°
2026-05-06 15:10 42.78950 4.57521 36939 ft 403 kts 212°
2026-05-06 15:10 42.74836 4.54423 36947 ft 403 kts 212°
2026-05-06 15:11 42.69915 4.50729 36941 ft 405 kts 212°
2026-05-06 15:11 42.64981 4.47032 36946 ft 405 kts 212°
2026-05-06 15:12 42.60046 4.43334 36949 ft 405 kts 212°
2026-05-06 15:12 42.55102 4.39638 36958 ft 406 kts 212°
2026-05-06 15:13 42.50188 4.35973 36945 ft 405 kts 212°
2026-05-06 15:13 42.45251 4.32295 36973 ft 405 kts 212°
2026-05-06 15:14 42.40317 4.28632 36970 ft 405 kts 212°
2026-05-06 15:14 42.35383 4.24974 36970 ft 404 kts 212°
2026-05-06 15:15 42.30452 4.21319 36959 ft 404 kts 212°
2026-05-06 15:15 42.25532 4.17678 36985 ft 403 kts 212°
2026-05-06 15:16 42.20619 4.14054 36980 ft 402 kts 212°
2026-05-06 15:16 42.15706 4.10445 36981 ft 402 kts 212°
2026-05-06 15:17 42.10790 4.06841 36949 ft 402 kts 212°
2026-05-06 15:17 42.05878 4.03238 36956 ft 402 kts 212°
2026-05-06 15:18 42.00972 3.99629 36972 ft 402 kts 212°
2026-05-06 15:18 41.96062 3.96036 36970 ft 402 kts 212°
2026-05-06 15:19 41.90917 3.93057 36936 ft 409 kts 198°
2026-05-06 15:19 41.85286 3.91708 36953 ft 411 kts 195°
2026-05-06 15:20 41.79646 3.90416 36959 ft 411 kts 195°
2026-05-06 15:20 41.74012 3.89124 36960 ft 411 kts 195°
2026-05-06 15:21 41.68379 3.87828 36944 ft 411 kts 195°
2026-05-06 15:21 41.62752 3.86535 36953 ft 410 kts 195°
2026-05-06 15:22 41.57125 3.85244 36955 ft 410 kts 195°
2026-05-06 15:22 41.51497 3.83944 36962 ft 411 kts 195°
2026-05-06 15:23 41.45860 3.82657 36935 ft 411 kts 195°
2026-05-06 15:23 41.40230 3.81375 36956 ft 410 kts 195°
2026-05-06 15:24 41.34596 3.80093 36973 ft 411 kts 195°
2026-05-06 15:24 41.28961 3.78809 36960 ft 411 kts 195°
2026-05-06 15:25 41.23359 3.77528 36944 ft 411 kts 195°
2026-05-06 15:25 41.17718 3.76242 36949 ft 411 kts 195°
2026-05-06 15:26 41.12267 3.74143 36954 ft 403 kts 206°
2026-05-06 15:26 41.07041 3.71440 36924 ft 403 kts 206°
2026-05-06 15:27 41.01817 3.68741 36931 ft 403 kts 206°
2026-05-06 15:27 40.96628 3.66069 36941 ft 403 kts 206°
2026-05-06 15:28 40.91364 3.63370 36947 ft 403 kts 206°
2026-05-06 15:28 40.86134 3.60692 36954 ft 403 kts 206°
2026-05-06 15:29 40.80939 3.58036 36941 ft 403 kts 206°
2026-05-06 15:29 40.75711 3.55371 36601 ft 402 kts 206°
2026-05-06 15:29 40.73102 3.54041 36344 ft 401 kts 206°
2026-05-06 15:30 40.70502 3.52715 36093 ft 401 kts 206°
2026-05-06 15:30 40.67898 3.51391 35833 ft 401 kts 206°
2026-05-06 15:30 40.65299 3.50070 35580 ft 400 kts 206°
2026-05-06 15:30 40.62706 3.48751 35336 ft 400 kts 206°
2026-05-06 15:31 40.60112 3.47431 35094 ft 399 kts 206°
2026-05-06 15:31 40.57522 3.46117 34848 ft 399 kts 206°
2026-05-06 15:31 40.54934 3.44806 34607 ft 398 kts 206°
2026-05-06 15:32 40.49765 3.42190 34133 ft 398 kts 207°
2026-05-06 15:32 40.47183 3.40886 33888 ft 397 kts 206°
2026-05-06 15:32 40.44518 3.39835 33614 ft 404 kts 198°
2026-05-06 15:32 40.41692 3.39405 33294 ft 414 kts 188°
2026-05-06 15:33 40.38787 3.39527 33031 ft 420 kts 185°
2026-05-06 15:33 40.35856 3.39703 32189 ft 424 kts 185°
2026-05-06 15:33 40.32886 3.39874 31088 ft 431 kts 184°
2026-05-06 15:33 40.29874 3.40048 30048 ft 436 kts 184°
2026-05-06 15:34 40.26824 3.40223 28827 ft 441 kts 184°
2026-05-06 15:34 40.23781 3.40399 28221 ft 433 kts 184°
2026-05-06 15:34 40.20790 3.40451 27231 ft 427 kts 191°
2026-05-06 15:34 40.17886 3.39760 26061 ft 426 kts 197°
2026-05-06 15:35 40.14983 3.38927 25119 ft 426 kts 197°
2026-05-06 15:35 40.12110 3.38102 24456 ft 420 kts 197°
2026-05-06 15:35 40.09291 3.37292 24076 ft 408 kts 197°
2026-05-06 15:35 40.06557 3.36509 23800 ft 397 kts 197°
2026-05-06 15:36 40.03872 3.35739 23454 ft 393 kts 197°
2026-05-06 15:36 40.01214 3.34971 22916 ft 390 kts 197°
2026-05-06 15:36 39.98576 3.34211 22286 ft 387 kts 197°
2026-05-06 15:36 39.95940 3.33454 21484 ft 388 kts 197°
2026-05-06 15:37 39.93304 3.32703 20719 ft 388 kts 196°
2026-05-06 15:37 39.90661 3.31960 19974 ft 389 kts 196°
2026-05-06 15:37 39.88016 3.31217 19248 ft 389 kts 196°
2026-05-06 15:37 39.85370 3.30470 18537 ft 389 kts 196°
2026-05-06 15:38 39.82725 3.29721 17781 ft 389 kts 196°
2026-05-06 15:38 39.80080 3.28973 16989 ft 389 kts 196°
2026-05-06 15:38 39.77436 3.28226 16226 ft 389 kts 195°
2026-05-06 15:38 39.74833 3.27496 16029 ft 375 kts 195°
2026-05-06 15:39 39.72336 3.26798 15898 ft 360 kts 195°
2026-05-06 15:39 39.69929 3.26123 15766 ft 347 kts 196°
2026-05-06 15:39 39.67613 3.25469 15636 ft 333 kts 196°
2026-05-06 15:39 39.65435 3.24840 15480 ft 309 kts 199°
2026-05-06 15:40 39.63516 3.23788 15177 ft 294 kts 215°
2026-05-06 15:40 39.61931 3.22145 15016 ft 292 kts 228°
2026-05-06 15:40 39.60729 3.20023 14549 ft 293 kts 243°
2026-05-06 15:40 39.59832 3.17666 14216 ft 291 kts 244°
2026-05-06 15:41 39.58927 3.15303 13877 ft 290 kts 244°
2026-05-06 15:41 39.58032 3.12985 13340 ft 286 kts 244°
2026-05-06 15:41 39.57142 3.10689 12770 ft 283 kts 244°
2026-05-06 15:41 39.56257 3.08414 12330 ft 282 kts 244°
2026-05-06 15:42 39.55370 3.06142 11905 ft 284 kts 244°
2026-05-06 15:42 39.54476 3.03854 11474 ft 285 kts 244°
2026-05-06 15:42 39.53581 3.01556 11030 ft 287 kts 244°
2026-05-06 15:42 39.52684 2.99254 10660 ft 286 kts 244°
2026-05-06 15:43 39.51787 2.96955 10320 ft 284 kts 244°
2026-05-06 15:43 39.50890 2.94659 9912 ft 286 kts 244°
2026-05-06 15:43 39.49998 2.92378 9602 ft 283 kts 244°
2026-05-06 15:43 39.49113 2.90112 9185 ft 281 kts 244°
2026-05-06 15:44 39.48238 2.87870 8512 ft 278 kts 244°
2026-05-06 15:44 39.47373 2.85656 8012 ft 274 kts 244°
2026-05-06 15:44 39.46507 2.83450 7588 ft 275 kts 244°
2026-05-06 15:44 39.45635 2.81247 7170 ft 275 kts 243°
2026-05-06 15:45 39.44733 2.79066 6786 ft 274 kts 242°
2026-05-06 15:45 39.43834 2.76911 6427 ft 271 kts 242°
2026-05-06 15:45 39.42940 2.74771 6064 ft 269 kts 242°
2026-05-06 15:45 39.42056 2.72650 5961 ft 269 kts 242°
2026-05-06 15:46 39.41167 2.70516 5692 ft 269 kts 242°
2026-05-06 15:46 39.40280 2.68390 5435 ft 269 kts 242°
2026-05-06 15:46 39.39516 2.66210 5072 ft 266 kts 257°
2026-05-06 15:46 39.39389 2.63859 4804 ft 255 kts 271°
2026-05-06 15:47 39.39436 2.61668 4663 ft 234 kts 272°
2026-05-06 15:47 39.39495 2.59611 4359 ft 226 kts 272°
2026-05-06 15:47 39.39554 2.57591 3937 ft 224 kts 272°
2026-05-06 15:47 39.39613 2.55605 3507 ft 224 kts 272°
2026-05-06 15:48 39.39673 2.53564 3104 ft 225 kts 272°
2026-05-06 15:48 39.39734 2.51576 2996 ft 224 kts 274°
2026-05-06 15:48 39.40192 2.49687 2996 ft 223 kts 306°
2026-05-06 15:48 39.41391 2.48434 3000 ft 221 kts 340°
2026-05-06 15:49 39.42865 2.48246 2998 ft 209 kts 13°
2026-05-06 15:49 39.44109 2.49034 3001 ft 201 kts 44°
2026-05-06 15:49 39.44942 2.50486 3008 ft 199 kts 59°
2026-05-06 15:49 39.45642 2.51967 3025 ft 191 kts 59°
2026-05-06 15:50 39.46340 2.53441 3005 ft 188 kts 59°
2026-05-06 15:50 39.47015 2.54859 2857 ft 187 kts 59°
2026-05-06 15:50 39.47696 2.56290 2637 ft 186 kts 59°
2026-05-06 15:50 39.48371 2.57710 2399 ft 182 kts 59°
2026-05-06 15:51 39.49018 2.59069 2163 ft 173 kts 59°
2026-05-06 15:51 39.49632 2.60360 1940 ft 164 kts 59°
2026-05-06 15:51 39.50225 2.61607 1743 ft 163 kts 59°
2026-05-06 15:51 39.50805 2.62829 1517 ft 156 kts 59°
2026-05-06 15:52 39.51363 2.64005 1305 ft 151 kts 59°
2026-05-06 15:52 39.51910 2.65156 1102 ft 149 kts 59°
2026-05-06 15:52 39.52451 2.66297 909 ft 148 kts 59°
2026-05-06 15:52 39.52984 2.67420 702 ft 145 kts 58°
2026-05-06 15:53 39.53505 2.68531 503 ft 142 kts 58°
2026-05-06 15:53 39.54014 2.69621 304 ft 141 kts 57°
2026-05-06 15:53 39.54528 2.70699 116 ft 141 kts 56°
2026-05-06 15:53 39.55042 2.71754 39 ft 131 kts 57°
2026-05-06 15:54 39.55345 2.72388 27 ft 110 kts 59°
2026-05-06 15:54 39.55654 2.73041 33 ft 60 kts 58°
2026-05-06 15:54 39.55853 2.73468 31 ft 51 kts 58°
2026-05-06 15:54 39.55974 2.73724 34 ft 17 kts 62°
2026-05-06 15:55 39.55966 2.73841 33 ft 8 kts 138°
2026-05-06 15:55 39.55958 2.73847 35 ft 0 kts 149°
2026-05-06 15:56 39.55941 2.73860 36 ft 6 kts 150°
2026-05-06 15:57 39.55891 2.73898 36 ft 9 kts 148°
2026-05-06 15:57 39.55840 2.73885 34 ft 8 kts 226°
2026-05-06 15:57 39.55809 2.73828 36 ft 8 kts 237°
2026-05-06 15:57 39.55777 2.73760 35 ft 10 kts 239°
2026-05-06 15:58 39.55737 2.73676 33 ft 12 kts 237°
2026-05-06 15:58 39.55690 2.73578 33 ft 13 kts 238°
2026-05-06 15:58 39.55632 2.73504 34 ft 12 kts 190°
2026-05-06 15:58 39.55565 2.73543 34 ft 10 kts 150°
2026-05-06 15:59 39.55508 2.73587 34 ft 9 kts 147°
2026-05-06 15:59 39.55452 2.73633 34 ft 11 kts 148°
2026-05-06 15:59 39.55379 2.73688 34 ft 14 kts 149°
2026-05-06 15:59 39.55291 2.73759 34 ft 16 kts 149°
2026-05-06 16:00 39.55203 2.73814 33 ft 12 kts 185°
2026-05-06 16:00 39.55131 2.73781 33 ft 11 kts 157°
2026-05-06 16:00 39.55066 2.73829 31 ft 11 kts 148°
2026-05-06 16:00 39.54998 2.73882 33 ft 12 kts 149°
2026-05-06 16:01 39.54941 2.73901 33 ft 7 kts 199°
2026-05-06 16:01 39.54909 2.73857 33 ft 6 kts 243°
2026-05-06 16:01 39.54894 2.73813 34 ft 4 kts 249°
2026-05-06 16:01 39.54893 2.73807 34 ft 0 kts 251°